sat.trackr.live / text

‹ back to catalog

STARLINK-35928

NORAD 66528 · 2025-265N

PAYLOAD ACTIVE UNKNOWN

§ Identity

Operator
Country
US
Launch date
2025-11-19
Launch site
AFETR
Launch vehicle
Mass (kg)
RCS (m²)

Purposes: comms

External: N2YO · Heavens-Above · Gunter

§ Orbital elements

Epoch: 2026-05-25T04:20:28.749984Z

Period
94.27 min
Inclination
43.0008°
Eccentricity
0.0002256
Mean motion
15.27589811 rev/d
Perigee alt
481.5 km
Apogee alt
484.6 km
Semi-major
6,861.2 km
B*
5.6937e-4
RAAN
205.7868°
Arg perigee
271.9175°
Mean anomaly
88.1418°
Rev number
2,881

§ Raw data

STARLINK-359281 66528U 25265N   26145.18088831  .00015444  00000+0  56937-3 0  99922 66528  43.0008 205.7868 0002256 271.9175  88.1418 15.27589811 28813

JSON: /api/v1/satellites/66528 · /tle

For live sub-satellite position, see the globe view (requires WebGL).

§ Visibility from observer

Set your observer location to see the next 7 days of passes ≥ 10°. The values pass through the URL so the page stays shareable.

No JS? Fill the form by hand. The geolocation button needs JavaScript.